{"data":{"norad_id":55046,"intl_designator":"2023-001AP","name":"LYNK TOWER 3","alt_names":[],"object_type":"PAYLOAD","status":"ACTIVE","operator":null,"country":"US","launch_date":"2023-01-03","launch_site_code":"AFETR","launch_vehicle":null,"mission":null,"orbit_class":"UNKNOWN","rcs_meters":null,"size_class":null,"mass_kg":null,"dimensions":null,"purposes":[],"wikipedia_slug":null,"has_3d_model":false,"image_url":null,"decayed_at":null,"tle_current":{"epoch":"2026-05-25T03:44:12.943104Z","epoch_age_seconds":58069,"freshness":"FRESH","line1":"1 55046U 23001AP  26145.15570536  .00010740  00000+0  31091-3 0  9994","line2":"2 55046  97.3215 205.5263 0007805 188.4061 171.7053 15.35737940188375","mean_motion":15.3573794,"eccentricity":0.0007805,"inclination_deg":97.3215,"raan_deg":205.5263,"arg_perigee_deg":188.4061,"mean_anomaly_deg":171.7053,"bstar":0.00031091,"rev_number":18837,"period_min":93.765997602429,"perigee_km":453.39331360617,"apogee_km":464.06566219379,"semimajor_km":6836.8664879,"source":"CELESTRAK","updated_at":"2026-05-25T13:37:58.811158Z"}}}